TRA1861 EHAM-LGSK

Flight info

Callsign TRA1861
Flight time N/A
Altitude 37000
Route EDUPO Z739 MISGO DCT DIXAT DCT KUMIK L603 BOMBI T104 WLD T702 OLETU L603 LATLO DCT KLAGY DCT MAGAM DCT NOVLO DCT PESAK DCT VABEK UL603 OLOTA DCT MAKED/N0408F230 L617 TSL
Aircraft A21N/M-SDE2E3FGHIRWXY/LB1

Departure

Time N/A
Airport Amsterdam Airport Schiphol (EHAM)

Arrival

Time 2026-04-25 18:51
Airport Skiathos Island National Airport (LGSK)
Time Latitude Longitude Altitude Speed Heading
2026-04-25 16:28 51.59169 6.54059 30442 ft 482 kts 131°
2026-04-25 16:28 51.56939 6.58084 30839 ft 482 kts 131°
2026-04-25 16:28 51.54743 6.62041 31239 ft 480 kts 131°
2026-04-25 16:29 51.52508 6.66062 31647 ft 479 kts 132°
2026-04-25 16:29 51.50298 6.70032 32030 ft 478 kts 131°
2026-04-25 16:29 51.48086 6.73997 32378 ft 477 kts 132°
2026-04-25 16:29 51.45893 6.77923 32707 ft 476 kts 132°
2026-04-25 16:30 51.43672 6.81890 33036 ft 476 kts 132°
2026-04-25 16:30 51.41489 6.85785 33368 ft 474 kts 131°
2026-04-25 16:30 51.39364 6.89814 33686 ft 473 kts 128°
2026-04-25 16:30 51.37306 6.93948 33991 ft 473 kts 128°
2026-04-25 16:31 51.35267 6.98056 34298 ft 472 kts 128°
2026-04-25 16:31 51.33245 7.02126 34585 ft 471 kts 128°
2026-04-25 16:31 51.31213 7.06202 34863 ft 470 kts 128°
2026-04-25 16:31 51.29182 7.10265 35117 ft 469 kts 128°
2026-04-25 16:32 51.27158 7.14317 35359 ft 469 kts 128°
2026-04-25 16:32 51.25217 7.18450 35569 ft 469 kts 126°
2026-04-25 16:32 51.23287 7.22645 35767 ft 470 kts 126°
2026-04-25 16:32 51.21354 7.26847 35933 ft 471 kts 126°
2026-04-25 16:33 51.19436 7.31011 36101 ft 471 kts 126°
2026-04-25 16:33 51.17539 7.35120 36271 ft 472 kts 126°
2026-04-25 16:33 51.15583 7.39349 36422 ft 473 kts 126°
2026-04-25 16:33 51.13649 7.43522 36563 ft 473 kts 126°
2026-04-25 16:34 51.11682 7.47755 36707 ft 474 kts 126°
2026-04-25 16:34 51.09737 7.51933 36858 ft 474 kts 126°
2026-04-25 16:34 51.07771 7.56152 37005 ft 475 kts 126°
2026-04-25 16:34 51.05813 7.60348 37120 ft 476 kts 126°
2026-04-25 16:35 51.03859 7.64527 37119 ft 476 kts 126°
2026-04-25 16:35 50.99904 7.72964 37122 ft 477 kts 127°
2026-04-25 16:36 50.95945 7.81382 37127 ft 477 kts 127°
2026-04-25 16:36 50.95277 7.82803 36756 ft 477 kts 127°
2026-04-25 16:36 50.91997 7.89756 37134 ft 478 kts 127°
2026-04-25 16:37 50.88020 7.98161 37159 ft 477 kts 127°
2026-04-25 16:37 50.84060 8.06521 37129 ft 477 kts 126°
2026-04-25 16:38 50.80339 8.15203 37128 ft 478 kts 123°
2026-04-25 16:38 50.76651 8.23958 37123 ft 478 kts 123°
2026-04-25 16:38 50.74825 8.28275 36850 ft 477 kts 123°
2026-04-25 16:39 50.72890 8.32479 37036 ft 477 kts 128°
2026-04-25 16:39 50.68316 8.40116 36920 ft 479 kts 139°
2026-04-25 16:39 50.65741 8.43389 37376 ft 477 kts 144°
2026-04-25 16:40 50.63017 8.46285 37363 ft 477 kts 149°
2026-04-25 16:40 50.60143 8.48838 37202 ft 475 kts 153°
2026-04-25 16:40 50.57222 8.51265 37140 ft 475 kts 153°
2026-04-25 16:41 50.51413 8.56089 37108 ft 475 kts 153°
2026-04-25 16:41 50.42460 8.62742 37097 ft 473 kts 161°
2026-04-25 16:42 50.36223 8.65843 37094 ft 471 kts 166°
2026-04-25 16:42 50.29982 8.68742 37093 ft 471 kts 166°
2026-04-25 16:43 50.23711 8.71666 37092 ft 470 kts 166°
2026-04-25 16:43 50.17486 8.74568 37090 ft 470 kts 166°
2026-04-25 16:44 50.11280 8.77712 37089 ft 471 kts 160°
2026-04-25 16:44 50.05388 8.82171 37089 ft 473 kts 151°
2026-04-25 16:45 50.00017 8.88020 37089 ft 474 kts 141°
2026-04-25 16:45 49.95112 8.94871 37087 ft 475 kts 138°
2026-04-25 16:46 49.90268 9.01767 37087 ft 474 kts 138°
2026-04-25 16:46 49.87022 9.06352 37086 ft 474 kts 138°
2026-04-25 16:47 49.80518 9.15476 37082 ft 475 kts 138°
2026-04-25 16:47 49.75617 9.22322 37082 ft 475 kts 138°
2026-04-25 16:48 49.70735 9.29124 37080 ft 475 kts 138°
2026-04-25 16:48 49.65857 9.35898 37081 ft 474 kts 138°
2026-04-25 16:49 49.61060 9.42898 37079 ft 475 kts 133°
2026-04-25 16:49 49.56712 9.50433 37077 ft 475 kts 130°
2026-04-25 16:50 49.52377 9.58067 37076 ft 474 kts 130°
2026-04-25 16:50 49.48023 9.65690 37073 ft 474 kts 131°
2026-04-25 16:51 49.43678 9.73264 37074 ft 474 kts 131°
2026-04-25 16:51 49.40038 9.79587 37077 ft 474 kts 131°
2026-04-25 16:52 49.34950 9.88398 37078 ft 474 kts 131°
2026-04-25 16:52 49.30574 9.95941 37079 ft 474 kts 131°
2026-04-25 16:53 49.24036 10.07165 37082 ft 474 kts 131°
2026-04-25 16:54 49.19627 10.14709 37085 ft 474 kts 131°
2026-04-25 16:54 49.15271 10.22154 37083 ft 474 kts 131°
2026-04-25 16:55 49.10817 10.29518 37075 ft 474 kts 133°
2026-04-25 16:55 49.06276 10.36763 37075 ft 474 kts 133°
2026-04-25 16:56 49.01731 10.44032 37075 ft 474 kts 133°
2026-04-25 16:56 48.97218 10.51243 37076 ft 474 kts 133°
2026-04-25 16:57 48.92683 10.58462 37076 ft 473 kts 133°
2026-04-25 16:57 48.88147 10.65675 37075 ft 472 kts 134°
2026-04-25 16:58 48.83588 10.72895 37077 ft 472 kts 134°
2026-04-25 16:58 48.79056 10.80046 37075 ft 472 kts 134°
2026-04-25 16:59 48.74507 10.87183 37076 ft 472 kts 134°
2026-04-25 16:59 48.69931 10.94337 37083 ft 473 kts 134°
2026-04-25 17:00 48.65383 11.01426 37082 ft 473 kts 134°
2026-04-25 17:00 48.61042 11.08848 37083 ft 472 kts 126°
2026-04-25 17:01 48.57491 11.17080 37082 ft 471 kts 117°
2026-04-25 17:01 48.54794 11.26063 37080 ft 469 kts 108°
2026-04-25 17:02 48.52652 11.35305 37075 ft 469 kts 107°
2026-04-25 17:02 48.50507 11.44538 37068 ft 469 kts 107°
2026-04-25 17:03 48.48132 11.53650 37065 ft 470 kts 113°
2026-04-25 17:03 48.44988 11.62296 37064 ft 472 kts 121°
2026-04-25 17:04 48.41093 11.70249 37064 ft 472 kts 130°
2026-04-25 17:04 48.36774 11.77604 37073 ft 472 kts 131°
2026-04-25 17:05 48.32418 11.84981 37068 ft 472 kts 131°
2026-04-25 17:05 48.25939 11.95980 37059 ft 472 kts 131°
2026-04-25 17:06 48.21588 12.03350 37056 ft 471 kts 131°
2026-04-25 17:06 48.17255 12.10662 37056 ft 471 kts 132°
2026-04-25 17:07 48.12651 12.17543 37061 ft 470 kts 137°
2026-04-25 17:07 48.07887 12.24233 37052 ft 471 kts 137°
2026-04-25 17:08 48.03124 12.30916 37055 ft 470 kts 137°
2026-04-25 17:08 47.98344 12.37611 37056 ft 469 kts 137°
2026-04-25 17:09 47.93619 12.44223 37061 ft 469 kts 137°
2026-04-25 17:09 47.88859 12.50858 37073 ft 469 kts 137°
2026-04-25 17:10 47.84092 12.57483 37076 ft 470 kts 137°
2026-04-25 17:10 47.79420 12.64259 37088 ft 470 kts 135°
2026-04-25 17:11 47.74815 12.71143 37083 ft 470 kts 136°
2026-04-25 17:11 47.70219 12.77991 37080 ft 470 kts 136°
2026-04-25 17:12 47.65821 12.85161 37079 ft 471 kts 131°
2026-04-25 17:12 47.61596 12.92529 37089 ft 470 kts 131°
2026-04-25 17:13 47.58787 12.97419 37095 ft 470 kts 131°
2026-04-25 17:13 47.53135 13.07215 37111 ft 470 kts 132°
2026-04-25 17:14 47.48895 13.14540 37121 ft 471 kts 132°
2026-04-25 17:14 47.44627 13.21888 37110 ft 471 kts 132°
2026-04-25 17:15 47.40380 13.29183 37115 ft 471 kts 132°
2026-04-25 17:15 47.36116 13.36490 37123 ft 471 kts 132°
2026-04-25 17:16 47.31864 13.43750 37116 ft 471 kts 132°
2026-04-25 17:16 47.27594 13.51027 37130 ft 471 kts 133°
2026-04-25 17:17 47.23295 13.58326 37124 ft 471 kts 133°
2026-04-25 17:17 47.19022 13.65563 37122 ft 471 kts 134°
2026-04-25 17:18 47.14714 13.72842 37123 ft 470 kts 134°
2026-04-25 17:18 47.10439 13.80048 37132 ft 471 kts 134°
2026-04-25 17:19 47.06146 13.87259 37120 ft 471 kts 134°
2026-04-25 17:19 47.01854 13.94456 37131 ft 471 kts 134°
2026-04-25 17:20 46.97534 14.01676 37125 ft 471 kts 134°
2026-04-25 17:20 46.93222 14.08860 37108 ft 471 kts 134°
2026-04-25 17:21 46.88909 14.16032 37100 ft 472 kts 134°
2026-04-25 17:21 46.84571 14.23226 37074 ft 472 kts 134°
2026-04-25 17:22 46.80967 14.29188 37061 ft 472 kts 134°
2026-04-25 17:22 46.75882 14.37578 37033 ft 472 kts 134°
2026-04-25 17:23 46.71548 14.44703 37033 ft 472 kts 134°
2026-04-25 17:23 46.67185 14.51858 37033 ft 473 kts 134°
2026-04-25 17:24 46.62838 14.58970 37043 ft 473 kts 134°
2026-04-25 17:24 46.58485 14.66073 37046 ft 473 kts 135°
2026-04-25 17:25 46.54111 14.73190 37067 ft 473 kts 135°
2026-04-25 17:25 46.49760 14.80346 37070 ft 474 kts 133°
2026-04-25 17:26 46.45572 14.87659 37055 ft 474 kts 133°
2026-04-25 17:26 46.41380 14.94985 37034 ft 474 kts 133°
2026-04-25 17:27 46.37169 15.02283 37010 ft 474 kts 133°
2026-04-25 17:27 46.34331 15.07183 37003 ft 474 kts 133°
2026-04-25 17:28 46.28719 15.16834 36996 ft 474 kts 133°
2026-04-25 17:28 46.24480 15.24106 36982 ft 474 kts 133°
2026-04-25 17:29 46.20213 15.31405 36974 ft 475 kts 133°
2026-04-25 17:29 46.15985 15.38618 36973 ft 474 kts 133°
2026-04-25 17:30 46.11738 15.45846 36969 ft 474 kts 133°
2026-04-25 17:30 46.07482 15.53066 36968 ft 475 kts 133°
2026-04-25 17:31 46.03209 15.60301 36964 ft 475 kts 133°
2026-04-25 17:31 45.98942 15.67503 36958 ft 475 kts 134°
2026-04-25 17:32 45.94672 15.74758 36960 ft 475 kts 133°
2026-04-25 17:32 45.90449 15.82024 36962 ft 475 kts 133°
2026-04-25 17:33 45.86227 15.89260 36963 ft 475 kts 133°
2026-04-25 17:33 45.81991 15.96495 36959 ft 475 kts 133°
2026-04-25 17:34 45.77764 16.03691 36958 ft 475 kts 133°
2026-04-25 17:34 45.73512 16.10912 36956 ft 475 kts 133°
2026-04-25 17:35 45.69278 16.18079 36958 ft 475 kts 133°
2026-04-25 17:35 45.65005 16.25295 36962 ft 475 kts 133°
2026-04-25 17:36 45.60759 16.32445 36963 ft 475 kts 133°
2026-04-25 17:36 45.56485 16.39627 36962 ft 475 kts 133°
2026-04-25 17:37 45.52221 16.46771 36965 ft 475 kts 132°
2026-04-25 17:37 45.47957 16.53900 36968 ft 475 kts 132°
2026-04-25 17:38 45.45113 16.58644 36971 ft 474 kts 132°
2026-04-25 17:38 45.39401 16.68146 36969 ft 474 kts 133°
2026-04-25 17:39 45.35122 16.75247 36968 ft 474 kts 133°
2026-04-25 17:39 45.30859 16.82297 36968 ft 474 kts 133°
2026-04-25 17:40 45.26544 16.89413 36968 ft 474 kts 133°
2026-04-25 17:40 45.22289 16.96493 36969 ft 474 kts 131°
2026-04-25 17:41 45.18154 17.03781 36973 ft 475 kts 130°
2026-04-25 17:41 45.14031 17.11047 36975 ft 475 kts 130°
2026-04-25 17:42 45.09899 17.18303 36974 ft 475 kts 130°
2026-04-25 17:42 45.05764 17.25539 36970 ft 475 kts 130°
2026-04-25 17:43 45.01610 17.32794 36968 ft 474 kts 130°
2026-04-25 17:43 44.97463 17.40016 36967 ft 474 kts 130°
2026-04-25 17:44 44.93324 17.47202 36971 ft 474 kts 130°
2026-04-25 17:44 44.89144 17.54439 36974 ft 474 kts 130°
2026-04-25 17:45 44.86388 17.59202 36979 ft 474 kts 130°
2026-04-25 17:45 44.80819 17.68808 36978 ft 474 kts 131°
2026-04-25 17:46 44.76657 17.75964 36979 ft 475 kts 131°
2026-04-25 17:46 44.72480 17.83129 36985 ft 474 kts 131°
2026-04-25 17:47 44.68315 17.90251 36986 ft 474 kts 131°
2026-04-25 17:47 44.64146 17.97364 36984 ft 473 kts 130°
2026-04-25 17:48 44.57870 18.08035 36992 ft 474 kts 130°
2026-04-25 17:49 44.53692 18.15117 37000 ft 474 kts 130°
2026-04-25 17:49 44.49488 18.22230 37006 ft 474 kts 130°
2026-04-25 17:50 44.45300 18.29297 37015 ft 474 kts 130°
2026-04-25 17:50 44.41109 18.36353 37019 ft 474 kts 130°
2026-04-25 17:51 44.36889 18.43436 37022 ft 474 kts 130°
2026-04-25 17:51 44.32701 18.50451 37027 ft 473 kts 130°
2026-04-25 17:52 44.28490 18.57485 37036 ft 473 kts 130°
2026-04-25 17:52 44.24273 18.64514 37036 ft 473 kts 130°
2026-04-25 17:53 44.20043 18.71550 37035 ft 473 kts 130°
2026-04-25 17:53 44.15824 18.78549 37038 ft 472 kts 130°
2026-04-25 17:54 44.11618 18.85509 37040 ft 472 kts 130°
2026-04-25 17:54 44.07392 18.92484 37045 ft 472 kts 130°
2026-04-25 17:55 44.03164 18.99443 37045 ft 473 kts 130°
2026-04-25 17:55 43.98945 19.06368 37048 ft 473 kts 130°
2026-04-25 17:56 43.94715 19.13298 37048 ft 472 kts 130°
2026-04-25 17:56 43.90458 19.20258 37050 ft 472 kts 130°
2026-04-25 17:57 43.86232 19.27147 37049 ft 471 kts 130°
2026-04-25 17:57 43.81979 19.34062 37045 ft 471 kts 130°
2026-04-25 17:58 43.77759 19.40908 37045 ft 470 kts 130°
2026-04-25 17:58 43.73524 19.47760 37049 ft 470 kts 130°
2026-04-25 17:59 43.69253 19.54619 37049 ft 470 kts 130°
2026-04-25 17:59 43.64976 19.61407 37051 ft 470 kts 130°
2026-04-25 18:00 43.60689 19.68195 37049 ft 470 kts 131°
2026-04-25 18:00 43.56393 19.74978 37048 ft 470 kts 130°
2026-04-25 18:01 43.52134 19.81691 37052 ft 469 kts 130°
2026-04-25 18:01 43.47833 19.88449 37063 ft 468 kts 130°
2026-04-25 18:02 43.43539 19.95185 37071 ft 468 kts 130°
2026-04-25 18:02 43.39269 20.01871 37074 ft 468 kts 130°
2026-04-25 18:03 43.34969 20.08584 37073 ft 467 kts 130°
2026-04-25 18:03 43.30685 20.15257 37066 ft 467 kts 130°
2026-04-25 18:04 43.26401 20.21915 37066 ft 467 kts 130°
2026-04-25 18:04 43.22111 20.28566 37065 ft 466 kts 130°
2026-04-25 18:05 43.17839 20.35176 37062 ft 465 kts 130°
2026-04-25 18:05 43.13564 20.41774 37063 ft 464 kts 130°
2026-04-25 18:06 43.09298 20.48342 37061 ft 464 kts 130°
2026-04-25 18:06 43.05025 20.54905 37062 ft 463 kts 130°
2026-04-25 18:07 43.00732 20.61446 37061 ft 463 kts 131°
2026-04-25 18:07 42.96126 20.67639 37054 ft 464 kts 135°
2026-04-25 18:08 42.91479 20.73705 37051 ft 464 kts 135°
2026-04-25 18:08 42.86823 20.79776 37050 ft 464 kts 135°
2026-04-25 18:09 42.82167 20.85834 37050 ft 464 kts 135°
2026-04-25 18:09 42.77497 20.91906 37050 ft 464 kts 135°
2026-04-25 18:10 42.72842 20.97938 37043 ft 463 kts 135°
2026-04-25 18:10 42.68185 21.03962 37044 ft 463 kts 135°
2026-04-25 18:11 42.63540 21.09953 37045 ft 463 kts 135°
2026-04-25 18:11 42.58885 21.15945 37044 ft 463 kts 134°
2026-04-25 18:12 42.54233 21.21920 37041 ft 463 kts 134°
2026-04-25 18:12 42.49563 21.27908 37040 ft 462 kts 134°
2026-04-25 18:13 42.44895 21.33877 37038 ft 461 kts 134°
2026-04-25 18:13 42.40248 21.39807 37040 ft 461 kts 134°
2026-04-25 18:14 42.33444 21.48465 37043 ft 461 kts 134°
2026-04-25 18:14 42.28808 21.54348 37047 ft 461 kts 134°
2026-04-25 18:15 42.24042 21.60145 37045 ft 462 kts 138°
2026-04-25 18:15 42.18816 21.65233 37036 ft 463 kts 146°
2026-04-25 18:16 42.13324 21.69797 37030 ft 463 kts 147°
2026-04-25 18:17 42.05136 21.76573 37017 ft 463 kts 146°
2026-04-25 18:17 41.99668 21.81094 37018 ft 462 kts 146°
2026-04-25 18:18 41.94179 21.85630 37017 ft 462 kts 146°
2026-04-25 18:18 41.88707 21.90143 37012 ft 462 kts 146°
2026-04-25 18:19 41.83261 21.94626 37016 ft 461 kts 146°
2026-04-25 18:19 41.77801 21.99110 37018 ft 462 kts 146°
2026-04-25 18:20 41.72322 22.03601 37017 ft 462 kts 146°
2026-04-25 18:20 41.66874 22.08057 37018 ft 461 kts 146°
2026-04-25 18:21 41.61408 22.12519 37023 ft 461 kts 146°
2026-04-25 18:21 41.55931 22.16981 37026 ft 460 kts 146°
2026-04-25 18:22 41.50481 22.21413 37028 ft 460 kts 146°
2026-04-25 18:22 41.45037 22.25829 37035 ft 460 kts 145°
2026-04-25 18:23 41.39569 22.30257 37033 ft 461 kts 145°
2026-04-25 18:23 41.34095 22.34681 37038 ft 460 kts 145°
2026-04-25 18:24 41.28661 22.39063 37033 ft 460 kts 145°
2026-04-25 18:24 41.23180 22.43471 37029 ft 459 kts 145°
2026-04-25 18:25 41.17735 22.47840 37026 ft 458 kts 145°
2026-04-25 18:25 41.12271 22.52161 37017 ft 459 kts 147°
2026-04-25 18:26 41.06679 22.56165 37015 ft 459 kts 148°
2026-04-25 18:26 41.01057 22.60165 37020 ft 458 kts 148°
2026-04-25 18:27 40.95478 22.64127 37016 ft 458 kts 148°
2026-04-25 18:27 40.89824 22.68135 37016 ft 458 kts 148°
2026-04-25 18:28 40.84204 22.72110 37017 ft 457 kts 148°
2026-04-25 18:28 40.78585 22.76073 36825 ft 458 kts 148°
2026-04-25 18:29 40.73025 22.79985 36271 ft 452 kts 148°
2026-04-25 18:29 40.70253 22.81934 35986 ft 450 kts 148°
2026-04-25 18:30 40.62009 22.87724 34411 ft 450 kts 147°
2026-04-25 18:30 40.59252 22.89657 33736 ft 451 kts 148°
2026-04-25 18:30 40.56499 22.91588 33077 ft 451 kts 148°
2026-04-25 18:30 40.53736 22.93521 32416 ft 451 kts 148°
2026-04-25 18:31 40.50986 22.95442 31745 ft 451 kts 148°
2026-04-25 18:31 40.48202 22.97381 31062 ft 452 kts 149°
2026-04-25 18:31 40.45371 22.99183 30387 ft 455 kts 152°
2026-04-25 18:31 40.42418 23.00796 29679 ft 457 kts 155°
2026-04-25 18:32 40.39485 23.02263 28955 ft 457 kts 156°
2026-04-25 18:32 40.36507 23.03745 28224 ft 458 kts 156°
2026-04-25 18:32 40.33533 23.05223 27454 ft 459 kts 156°
2026-04-25 18:32 40.30548 23.06705 26668 ft 461 kts 156°
2026-04-25 18:33 40.27554 23.08192 25855 ft 462 kts 156°
2026-04-25 18:33 40.24553 23.09683 25001 ft 464 kts 156°
2026-04-25 18:33 40.21535 23.11180 24124 ft 466 kts 156°
2026-04-25 18:33 40.18515 23.12675 23551 ft 463 kts 157°
2026-04-25 18:34 40.15523 23.14153 22998 ft 458 kts 157°
2026-04-25 18:34 40.12559 23.15616 22452 ft 454 kts 157°
2026-04-25 18:34 40.09613 23.17068 21882 ft 450 kts 156°
2026-04-25 18:34 40.06707 23.18501 21316 ft 445 kts 156°
2026-04-25 18:35 40.03821 23.19923 20752 ft 441 kts 156°
2026-04-25 18:35 40.00974 23.21325 20180 ft 437 kts 156°
2026-04-25 18:35 39.98157 23.22712 19621 ft 433 kts 156°
2026-04-25 18:35 39.95319 23.24106 19041 ft 428 kts 156°
2026-04-25 18:36 39.92565 23.25459 18466 ft 425 kts 156°
2026-04-25 18:36 39.89774 23.26833 17882 ft 422 kts 156°
2026-04-25 18:36 39.87027 23.28183 17305 ft 417 kts 156°
2026-04-25 18:36 39.84331 23.29508 16733 ft 414 kts 156°
2026-04-25 18:37 39.81641 23.30826 16180 ft 411 kts 156°
2026-04-25 18:37 39.78974 23.32130 15644 ft 407 kts 156°
2026-04-25 18:37 39.76327 23.33423 15108 ft 404 kts 156°
2026-04-25 18:37 39.73717 23.34697 14581 ft 398 kts 157°
2026-04-25 18:38 39.71142 23.35953 14053 ft 395 kts 156°
2026-04-25 18:38 39.68549 23.37222 13502 ft 392 kts 157°
2026-04-25 18:38 39.65998 23.38465 12948 ft 390 kts 157°
2026-04-25 18:38 39.63472 23.39697 12380 ft 388 kts 157°
2026-04-25 18:39 39.60932 23.40934 11812 ft 385 kts 157°
2026-04-25 18:39 39.58465 23.42133 11442 ft 376 kts 157°
2026-04-25 18:39 39.56059 23.43298 11165 ft 364 kts 157°
2026-04-25 18:39 39.53717 23.44431 10972 ft 351 kts 157°
2026-04-25 18:40 39.51459 23.45524 10773 ft 339 kts 157°
2026-04-25 18:40 39.49294 23.46572 10586 ft 327 kts 157°
2026-04-25 18:40 39.47195 23.47587 10411 ft 316 kts 157°
2026-04-25 18:40 39.45197 23.48552 10253 ft 305 kts 157°
2026-04-25 18:41 39.43244 23.49497 10109 ft 293 kts 157°
2026-04-25 18:41 39.41343 23.50414 9895 ft 286 kts 156°
2026-04-25 18:41 39.39487 23.51313 9523 ft 285 kts 157°
2026-04-25 18:41 39.37657 23.52199 9173 ft 283 kts 157°
2026-04-25 18:42 39.35814 23.53089 8823 ft 281 kts 157°
2026-04-25 18:42 39.35213 23.53380 8710 ft 280 kts 157°
2026-04-25 18:42 39.32171 23.54848 8129 ft 277 kts 157°
2026-04-25 18:42 39.30382 23.55711 7788 ft 275 kts 157°
2026-04-25 18:43 39.28601 23.56568 7448 ft 274 kts 157°
2026-04-25 18:43 39.26810 23.57429 7108 ft 272 kts 157°
2026-04-25 18:43 39.25050 23.58277 6778 ft 270 kts 157°
2026-04-25 18:43 39.23296 23.59119 6445 ft 268 kts 157°
2026-04-25 18:44 39.21540 23.59962 6111 ft 266 kts 157°
2026-04-25 18:44 39.19830 23.60783 5789 ft 265 kts 158°
2026-04-25 18:44 39.18013 23.61264 5415 ft 267 kts 181°
2026-04-25 18:44 39.16243 23.60588 5091 ft 267 kts 205°
2026-04-25 18:45 39.14601 23.59484 4769 ft 266 kts 207°
2026-04-25 18:45 39.12976 23.58377 4447 ft 265 kts 206°
2026-04-25 18:45 39.11352 23.57288 4125 ft 263 kts 206°
2026-04-25 18:45 39.09715 23.56204 3806 ft 261 kts 206°
2026-04-25 18:46 39.08115 23.55155 3537 ft 256 kts 206°
2026-04-25 18:46 39.06565 23.54142 3501 ft 241 kts 206°
2026-04-25 18:46 39.05120 23.53197 3447 ft 226 kts 206°
2026-04-25 18:46 39.03722 23.52282 3302 ft 227 kts 206°
2026-04-25 18:47 39.02378 23.51213 2878 ft 231 kts 227°
2026-04-25 18:47 39.01716 23.49401 2447 ft 230 kts 270°
2026-04-25 18:47 39.02153 23.47494 2068 ft 223 kts 312°
2026-04-25 18:47 39.03418 23.46507 1753 ft 212 kts 353°
2026-04-25 18:48 39.04807 23.46603 1693 ft 186 kts 11°
2026-04-25 18:48 39.06000 23.46914 1602 ft 161 kts 14°
2026-04-25 18:48 39.07024 23.47217 1603 ft 142 kts 14°
2026-04-25 18:48 39.07975 23.47502 1598 ft 138 kts 14°
2026-04-25 18:49 39.08906 23.47778 1608 ft 137 kts 14°
2026-04-25 18:49 39.09836 23.48045 1619 ft 137 kts 13°
2026-04-25 18:49 39.10779 23.48302 1553 ft 138 kts
2026-04-25 18:49 39.11719 23.48471 1348 ft 137 kts
2026-04-25 18:50 39.12660 23.48634 1098 ft 136 kts
2026-04-25 18:50 39.13608 23.48775 827 ft 135 kts
2026-04-25 18:50 39.14529 23.49007 590 ft 134 kts 13°
2026-04-25 18:50 39.15427 23.49339 404 ft 134 kts 18°
2026-04-25 18:51 39.16314 23.49713 232 ft 133 kts 18°
2026-04-25 18:51 39.16609 23.49844 172 ft 133 kts 19°
2026-04-25 18:51 39.17980 23.50476 38 ft 98 kts 20°
2026-04-25 18:51 39.18367 23.50648 38 ft 21 kts 19°
2026-04-25 18:52 39.18447 23.50674 38 ft 8 kts
2026-04-25 18:52 39.18479 23.50693 38 ft 3 kts 134°
2026-04-25 18:52 39.18442 23.50681 38 ft 6 kts 198°
2026-04-25 18:52 39.18395 23.50662 38 ft 7 kts 198°
2026-04-25 18:53 39.18338 23.50638 38 ft 9 kts 198°
2026-04-25 18:53 39.18275 23.50612 38 ft 10 kts 198°
2026-04-25 18:53 39.18203 23.50581 38 ft 11 kts 198°
2026-04-25 18:53 39.18126 23.50548 38 ft 12 kts 198°
2026-04-25 18:54 39.17954 23.50473 38 ft 13 kts 199°
2026-04-25 18:54 39.17863 23.50432 38 ft 14 kts 199°
2026-04-25 18:54 39.17769 23.50386 38 ft 14 kts 201°
2026-04-25 18:55 39.17692 23.50321 38 ft 8 kts 258°
2026-04-25 18:55 39.17683 23.50253 38 ft 7 kts 230°
2026-04-25 18:55 39.17650 23.50228 38 ft 2 kts 204°
2026-04-25 18:55 39.17647 23.50226 38 ft 1 kts 204°
2026-04-25 18:56 39.17635 23.50219 38 ft 2 kts 204°
2026-04-25 18:56 39.17614 23.50207 38 ft 3 kts 201°